Portada
METAR-TAF:

METAR-TAF

Aeroports :

Gwalior, Índia

latitud: 26-17-36N, longitud: 78-13-40E, altitud: 188 m

Observació

L'informe es va fer fa 1 hora i 44 minuts, a les 21:00 UTC
Vent calma
Temperatura 16°C
Humitat 82%
Pressió 1015 hPa
Visibilitat: 3000 m
calitja

METAR: VIGR 192100Z 00000KT 3000 HZ NSC 16/13 Q1015

Hora: 04:14 (22:44 UTC)


TAF: manca

Observacions i pronòstics meteorològics de més de 4000 aeroports (METAR i TAF).

Les estacions disponibles són els punts grocs i vermells al mapa.

Posi el ratolí al punt desitjat per veure el nom de l'estació.

Feu clic per veure les observacions i els pronòstics meteorològics.

Per canviar el mapa: feu clic els botons verds amb una creu de color negre per apropar; al botó verd amb un guió per allunyar la imatge; o en les fletxes verdes per a mapes adjacents.


METAR-TAF: